STARLINK-33582 (62783 NORAD) Tracking and Keplerian Element Data

This shows tracking and keplerian element data for the satellite.

Feedback or suggestion? Click here.




ElementValue
Catalog62783
NameSTARLINK-33582
Epoch Orbit334
Epoch Day35.25001157
Epoch Year2025
RAAN18.5968
Inclination53.1592
Eccentricity0.0001097
Argument of Perigee70.9343
Mean Anonmoly244.1262
Mean Motion15.7760141
Decay Rate-0.01223994
L11 62783U 25015AB 25035.25001157 -.01223994 00000+0 -81233-2 0 9995
L22 62783 53.1592 18.5968 0001097 70.9343 244.1262 15.77601410 3346



Live tracking and technical data element details for STARLINK-33582 (NORAD 62783). STARLINK-33582 can be tracked NOW for your location showing map with azimuth and elevation plus other details from your city location.







IsCatalogInMostPopularTable: catalog: 62783, numindb: 4
Update: records affected: 1



GetName: 62783 STARLINK-33582

Hit Count: updated at: Sun, 09 Feb 2025 15:12:05 GMT